When you browse on this site, cookies collect data to enhance your experience and personalize the content and advertising you see.
Visit our Privacy Policy to learn more. By continuing to use the site, you agree to this use of cookies and data.
EN

Hourly Weather Braslaw

Today, 5 July, Sunday

Time Temperature Precipitation Wind Pressure Humidity
00:00 +16°C° 0 mm 2 mps 747 mmHg 83%
01:00 +16°C° 0 mm 2 mps 747 mmHg 83%
02:00 +16°C° 0 mm 3 mps 747 mmHg 84%
03:00 +16°C° 0 mm 3 mps 747 mmHg 85%
04:00 +16°C° 0 mm 3 mps 747 mmHg 86%
05:00 +16°C° 0 mm 3 mps 746 mmHg 87%
06:00 +17°C° 0.1 mm 3 mps 746 mmHg 87%
07:00 +17°C° 0.1 mm 3 mps 746 mmHg 87%
08:00 +18°C° 0.1 mm 3 mps 746 mmHg 87%
09:00 +18°C° 0.2 mm 3 mps 746 mmHg 88%
10:00 +18°C° 0.2 mm 3 mps 746 mmHg 89%
11:00 +19°C° 0.2 mm 4 mps 746 mmHg 90%
12:00 +19°C° 0.1 mm 4 mps 746 mmHg 88%
13:00 +20°C° 0.1 mm 3 mps 746 mmHg 86%
14:00 +20°C° 0.1 mm 3 mps 746 mmHg 84%
15:00 +21°C° 0.4 mm 4 mps 745 mmHg 84%
16:00 +22°C° 0.4 mm 4 mps 745 mmHg 84%
17:00 +22°C° 0.4 mm 4 mps 745 mmHg 84%
18:00 +22°C° 0.3 mm 4 mps 744 mmHg 87%
19:00 +21°C° 0.3 mm 3 mps 744 mmHg 90%
20:00 +20°C° 0.3 mm 3 mps 744 mmHg 93%
21:00 +20°C° 0 mm 3 mps 744 mmHg 94%
22:00 +19°C° 0 mm 3 mps 744 mmHg 95%
23:00 +19°C° 0 mm 4 mps 744 mmHg 96%

Tomorrow, 6 July, Monday

Time Temperature Precipitation Wind Pressure Humidity
00:00 +19°C° 0 mm 4 mps 743 mmHg 96%
01:00 +18°C° 0 mm 4 mps 743 mmHg 97%
02:00 +18°C° 0 mm 4 mps 743 mmHg 97%
03:00 +18°C° 0 mm 3 mps 743 mmHg 97%
04:00 +19°C° 0 mm 3 mps 743 mmHg 96%
05:00 +19°C° 0 mm 3 mps 743 mmHg 96%
06:00 +19°C° 0.1 mm 3 mps 743 mmHg 94%
07:00 +20°C° 0.1 mm 4 mps 743 mmHg 92%
08:00 +21°C° 0.1 mm 4 mps 743 mmHg 90%
09:00 +21°C° 0.2 mm 4 mps 743 mmHg 87%
10:00 +22°C° 0.2 mm 5 mps 744 mmHg 84%
11:00 +22°C° 0.2 mm 5 mps 744 mmHg 80%
12:00 +22°C° 0.2 mm 4 mps 743 mmHg 79%
13:00 +22°C° 0.2 mm 4 mps 743 mmHg 78%
14:00 +21°C° 0.2 mm 4 mps 743 mmHg 77%
15:00 +21°C° 0 mm 3 mps 743 mmHg 78%
16:00 +21°C° 0 mm 3 mps 743 mmHg 78%
17:00 +20°C° 0 mm 2 mps 743 mmHg 79%
18:00 +20°C° 0 mm 2 mps 743 mmHg 81%
19:00 +20°C° 0 mm 1 mps 743 mmHg 84%
20:00 +19°C° 0 mm 1 mps 743 mmHg 86%
21:00 +19°C° 0 mm 1 mps 744 mmHg 88%
22:00 +18°C° 0 mm 1 mps 744 mmHg 89%
23:00 +16°C° 0 mm 1 mps 744 mmHg 91%

Day after tomorrow, 7 July, Tuesday

Time Temperature Precipitation Wind Pressure Humidity
00:00 +15°C° 0 mm 1 mps 744 mmHg 91%
01:00 +14°C° 0 mm 1 mps 744 mmHg 91%
02:00 +13°C° 0 mm 2 mps 744 mmHg 91%
03:00 +13°C° 0 mm 2 mps 745 mmHg 88%
04:00 +13°C° 0 mm 2 mps 745 mmHg 85%
05:00 +12°C° 0 mm 2 mps 745 mmHg 83%
06:00 +13°C° 0 mm 3 mps 745 mmHg 79%
07:00 +14°C° 0 mm 3 mps 745 mmHg 75%
08:00 +17°C° 0 mm 3 mps 745 mmHg 70%
09:00 +18°C° 0 mm 3 mps 746 mmHg 66%
10:00 +19°C° 0 mm 4 mps 746 mmHg 62%
11:00 +20°C° 0 mm 4 mps 746 mmHg 58%
12:00 +21°C° 0 mm 4 mps 746 mmHg 57%
13:00 +21°C° 0 mm 4 mps 746 mmHg 55%
14:00 +22°C° 0 mm 4 mps 746 mmHg 53%
15:00 +21°C° 0 mm 4 mps 746 mmHg 56%
16:00 +21°C° 0 mm 4 mps 746 mmHg 58%
17:00 +21°C° 0 mm 4 mps 746 mmHg 60%
18:00 +19°C° 0 mm 4 mps 746 mmHg 66%
19:00 +18°C° 0 mm 3 mps 747 mmHg 71%
20:00 +16°C° 0 mm 3 mps 747 mmHg 76%
21:00 +14°C° 0 mm 3 mps 747 mmHg 80%
22:00 +13°C° 0 mm 3 mps 748 mmHg 83%
23:00 +13°C° 0 mm 2 mps 748 mmHg 87%

8 July, Wednesday

Time Temperature Precipitation Wind Pressure Humidity
00:00 +12°C° 0 mm 2 mps 748 mmHg 90%
01:00 +10°C° 0 mm 2 mps 748 mmHg 92%
02:00 +9°C° 0 mm 2 mps 748 mmHg 95%
03:00 +9°C° 0 mm 2 mps 748 mmHg 95%
04:00 +9°C° 0 mm 2 mps 748 mmHg 94%
05:00 +9°C° 0 mm 2 mps 748 mmHg 94%
06:00 +12°C° 0 mm 2 mps 748 mmHg 87%
07:00 +14°C° 0 mm 2 mps 748 mmHg 80%
08:00 +15°C° 0 mm 2 mps 749 mmHg 73%
09:00 +17°C° 0 mm 2 mps 748 mmHg 68%
10:00 +18°C° 0 mm 2 mps 748 mmHg 62%
11:00 +20°C° 0 mm 2 mps 748 mmHg 57%
12:00 +21°C° 0 mm 2 mps 748 mmHg 55%
13:00 +21°C° 0 mm 2 mps 748 mmHg 53%
14:00 +23°C° 0 mm 2 mps 747 mmHg 51%
15:00 +21°C° 0 mm 2 mps 747 mmHg 56%
16:00 +21°C° 0 mm 2 mps 747 mmHg 61%
17:00 +20°C° 0 mm 2 mps 747 mmHg 66%
18:00 +19°C° 0.1 mm 2 mps 747 mmHg 72%
19:00 +18°C° 0.1 mm 2 mps 747 mmHg 79%
20:00 +16°C° 0.1 mm 2 mps 747 mmHg 85%
21:00 +16°C° 0 mm 2 mps 747 mmHg 88%
22:00 +15°C° 0 mm 1 mps 747 mmHg 90%
23:00 +14°C° 0 mm 1 mps 746 mmHg 92%

9 July, Thursday

Time Temperature Precipitation Wind Pressure Humidity
00:00 +14°C° 0 mm 1 mps 746 mmHg 92%
01:00 +14°C° 0 mm 1 mps 746 mmHg 91%
02:00 +14°C° 0 mm 1 mps 746 mmHg 91%
03:00 +14°C° 0 mm 2 mps 746 mmHg 91%
04:00 +14°C° 0 mm 2 mps 746 mmHg 90%
05:00 +14°C° 0 mm 2 mps 745 mmHg 90%
06:00 +14°C° 0.1 mm 3 mps 745 mmHg 86%
07:00 +15°C° 0.1 mm 4 mps 745 mmHg 82%
08:00 +17°C° 0.1 mm 4 mps 745 mmHg 78%
09:00 +16°C° 0.2 mm 5 mps 745 mmHg 73%
10:00 +17°C° 0.2 mm 5 mps 745 mmHg 67%
11:00 +19°C° 0.2 mm 5 mps 745 mmHg 62%
12:00 +19°C° 0.1 mm 6 mps 745 mmHg 60%
13:00 +20°C° 0.1 mm 6 mps 745 mmHg 58%
14:00 +20°C° 0.1 mm 7 mps 745 mmHg 56%
15:00 +20°C° 0.1 mm 7 mps 745 mmHg 59%
16:00 +18°C° 0.1 mm 7 mps 745 mmHg 61%
17:00 +17°C° 0.1 mm 7 mps 745 mmHg 64%
18:00 +16°C° 0.1 mm 6 mps 745 mmHg 69%
19:00 +15°C° 0.1 mm 6 mps 746 mmHg 74%
20:00 +14°C° 0.1 mm 5 mps 746 mmHg 79%
21:00 +14°C° 0 mm 5 mps 746 mmHg 80%
22:00 +14°C° 0 mm 5 mps 746 mmHg 82%
23:00 +14°C° 0 mm 6 mps 747 mmHg 83%

10 July, Friday

Time Temperature Precipitation Wind Pressure Humidity
00:00 +13°C° 0 mm 5 mps 747 mmHg 83%
01:00 +13°C° 0 mm 5 mps 748 mmHg 82%
02:00 +13°C° 0 mm 5 mps 748 mmHg 82%
03:00 +11°C° 0 mm 4 mps 748 mmHg 85%
04:00 +10°C° 0 mm 4 mps 748 mmHg 88%
05:00 +9°C° 0 mm 3 mps 749 mmHg 91%
06:00 +11°C° 0 mm 3 mps 749 mmHg 84%
07:00 +13°C° 0 mm 4 mps 749 mmHg 76%
08:00 +15°C° 0 mm 4 mps 749 mmHg 68%
09:00 +17°C° 0 mm 3 mps 749 mmHg 63%
10:00 +18°C° 0 mm 3 mps 749 mmHg 57%
11:00 +19°C° 0 mm 3 mps 749 mmHg 51%
12:00 +20°C° 0 mm 3 mps 749 mmHg 49%
13:00 +21°C° 0 mm 3 mps 749 mmHg 48%
14:00 +21°C° 0 mm 3 mps 749 mmHg 46%
15:00 +21°C° 0 mm 3 mps 749 mmHg 47%
16:00 +21°C° 0 mm 3 mps 749 mmHg 49%
17:00 +21°C° 0 mm 3 mps 749 mmHg 51%
18:00 +20°C° 0 mm 2 mps 749 mmHg 59%
19:00 +18°C° 0 mm 2 mps 749 mmHg 67%
20:00 +17°C° 0 mm 2 mps 748 mmHg 75%
21:00 +16°C° 0 mm 2 mps 749 mmHg 79%
22:00 +15°C° 0 mm 2 mps 749 mmHg 82%
23:00 +14°C° 0 mm 2 mps 749 mmHg 85%
Show more